Regional Weather Roundup
Issued by NWS

Home | Current Version | Previous Version | Graphics & Text | Print | Product List | Glossary Off
Versions: 1 2 3 4 5 6 7 8 9 10 11 12 13 14 15 16 17 18 19 20 21 22 23 24 25 26 27 28 29 30 31 32 33 34 35 36 37 38 39 40 41 42 43 44 45 46 47 48 49 50

000
ASUS43 KTOP 181959
RWRKS

WEATHER ROUNDUP FOR KANSAS
NATIONAL WEATHER SERVICE GOODLAND KS
300 PM CDT SAT APR 18 2015

NOTE:  "FAIR" INDICATES FEW OR NO CLOUDS BELOW 12,000 FEET WITH NO
SIGNIFICANT WEATHER AND/OR OBSTRUCTIONS TO VISIBILITY.

KSZ001>006-013>018-027>032-041>047-182100-
NORTHWEST KANSAS

CITY           SKY/WX    TMP DP  RH WIND       PRES   REMARKS
GOODLAND       PTSUNNY   61  44  53 SE13      29.81F
HAYS           MOSUNNY   72  48  43 S10       29.79F
HILL CITY      PTSUNNY   70  52  52 SE7       29.80F
RUSSELL        MOSUNNY   70  54  56 S10       29.78F
$$

KSZ061>065-074>080-084>089-182100-
SOUTHWEST KANSAS

CITY           SKY/WX    TMP DP  RH WIND       PRES   REMARKS
DODGE CITY     MOSUNNY   69  35  28 S10       29.81F
ELKHART          N/A    N/A N/A N/A MISG        N/A
GARDEN CITY    MOSUNNY   68  36  30 SW15G21   29.80F
GREAT BEND     CLOUDY    63  46  55 S18G30    29.82R THUNDER
LIBERAL        MOSUNNY   70  32  24 SW13      29.82F
$$

KSZ066>073-081>083-090>101-182100-
SOUTHEAST KANSAS

CITY           SKY/WX    TMP DP  RH WIND       PRES   REMARKS
CHANUTE        PTSUNNY   66  58  75 SE8       29.88F
COFFEYVILLE    CLOUDY    69  60  73 SE10      29.87F
HUTCHINSON     MOSUNNY   73  57  57 SE21      29.81F
MEDICINE LODGE   N/A     71  58  63 S12G20    29.79F
NEWTON         MOSUNNY   70  57  64 S17       29.85F
PARSONS        PTSUNNY   69  60  73 SE7       29.89F
WICHITA INTL   CLOUDY    72  57  59 SE13G22   29.83F
WICHITA JABRA  MOSUNNY   72  57  59 SE14G21   29.84F
WICHITA MCCONL MOSUNNY   73  57  56 SE17      29.84F
WINFIELD       PTSUNNY   73  58  59 SE12      29.85F
$$

KSZ007>012-019>026-033>040-048>060-102>105-182100-
NORTHEAST KANSAS

CITY           SKY/WX    TMP DP  RH WIND       PRES   REMARKS
CONCORDIA      PTSUNNY   71  57  61 SE9       29.82F
EMPORIA        LGT RAIN  62  59  90 SE13      29.88F
LAWRENCE       LGT RAIN  62  59  90 S9        29.90F
MANHATTAN      CLOUDY    70  61  73 S16G23    29.84F
OLATHE IND     CLOUDY    61  59  93 SE10      29.91F
OLATHE EXE     LGT RAIN  61  59  93 SE7       29.90F
SALINA         MOSUNNY   74  56  53 S16       29.80F
TOPEKA BILLARD CLOUDY    63  58  83 SE10      29.89F
TOPEKA FORBES  CLOUDY    63  58  83 S10       29.89S
$$


USA.gov is the U.S. government's official web portal to all federal, state and local government web resources and services.